This demonstration page uses our WeatherBlox Daily Observations layout. Learn more.

Left ArrowRight Arrow

34.02893, -84.19858

Hourly Observations for November 2, 2022

Temp ( °F °C ) Dew Point ( °F °C ) Humidity (%) Winds ( mph kmh ) Pressure ( in mb ) Visibility ( mi km ) Precip ( " mm )
12:53 am 00:53 Clear 55 12.8 52 11.1 89 89 Calm 30.21 1023 10 16 0.00 0.00
1:53 am 01:53 Clear 55 12.8 53 11.7 93 93 Calm 30.21 1023 10 16 0.00 0.00
2:53 am 02:53 Clear 54 12.2 53 11.7 97 97 Calm 30.21 1023 10 16 0.00 0.00
3:53 am 03:53 Clear 54 12.2 53 11.7 97 97 Calm 30.22 1023 9 14 0.00 0.00
4:53 am 04:53 Clear 54 12.2 53 11.7 97 97 Calm 30.23 1024 9 14 0.00 0.00
5:53 am 05:53 Clear 55 12.8 53 11.7 93 93 Calm 30.23 1024 9 14 0.00 0.00
6:53 am 06:53 Clear 57 13.9 54 12.2 89 89 Calm 30.23 1024 10 16 0.00 0.00
7:53 am 07:53 Clear 57 13.9 54 12.2 89 89 E 3 6 30.24 1024 10 16 0.00 0.00
8:53 am 08:53 Sunny 59 15 53 11.7 81 81 E 3 6 30.27 1025 10 16 0.00 0.00
9:53 am 09:53 Partly Cloudy 60 15.6 53 11.7 78 78 Calm 30.28 1025 10 16 0.00 0.00
10:53 am 10:53 Sunny 64 17.8 53 11.7 67 67 VRB 6 9 30.29 1026 10 16 0.00 0.00
11:53 am 11:53 Sunny 68 20 52 11.1 57 57 E 6 9 30.27 1025 10 16 0.00 0.00
12:53 pm 12:53 Sunny 68 20 53 11.7 59 59 VRB 3 6 30.28 1025 10 16 0.00 0.00
1:53 pm 13:53 Sunny 70 21.1 54 12.2 57 57 VRB 3 6 30.24 1024 10 16 0.00 0.00
2:53 pm 14:53 Mostly Cloudy 71 21.7 53 11.7 53 53 Calm 30.24 1024 10 16 0.00 0.00
3:53 pm 15:53 Mostly Sunny 70 21.1 52 11.1 53 53 Calm 30.23 1024 10 16 0.00 0.00
4:53 pm 16:53 Sunny 69 20.6 53 11.7 57 57 Calm 30.22 1023 10 16 0.00 0.00
5:53 pm 17:53 Sunny 68 20 52 11.1 57 57 Calm 30.22 1023 10 16 0.00 0.00
6:53 pm 18:53 Partly Cloudy 65 18.3 53 11.7 65 65 Calm 30.22 1024 10 16 0.00 0.00
7:53 pm 19:53 Mostly Clear 63 17.2 53 11.7 70 70 E 3 6 30.24 1024 10 16 0.00 0.00
8:53 pm 20:53 Clear 63 17.2 53 11.7 70 70 Calm 30.25 1024 10 16 0.00 0.00
9:53 pm 21:53 Clear 61 16.1 52 11.1 72 72 VRB 3 6 30.26 1025 10 16 0.00 0.00
10:53 pm 22:53 Clear 59 15 52 11.1 77 77 Calm 30.26 1025 10 16 0.00 0.00
11:53 pm 23:53 Clear 59 15 52 11.1 77 77 VRB 3 6 30.25 1025 10 16 0.00 0.00

Powered by AerisWeather